Spokane, WA

12:45 PM PST on February 11, 2016 (GMT -0800)
Spokane International

Weather History for KGEG - May, 2012

Change the Weather History Date:

Saturday, May 5, 2012

  Actual Average Record
Temperature  
Mean Temperature 45 °F 52 °F  
Max Temperature 55 °F 63 °F 92 °F (1966)
Min Temperature 34 °F 41 °F 27 °F (1999)
Degree Days  
Heating Degree Days 20 13  
Month to date heating degree days 101 69  
Since 1 July heating degree days 6083 6205  
Cooling Degree Days 0 0  
Month to date cooling degree days 0 0  
Year to date cooling degree days 2 0  
Moisture  
Dew Point 29 °F    
Average Humidity 61    
Maximum Humidity 89    
Minimum Humidity 32    
Precipitation  
Precipitation T in 0.04 in 0.58 in (1883)
Month to date precipitation 0.41 0.20  
Year to date precipitation 9.85 6.21  
Snow  
Snow 0.00 in 0.00 in 0.40 in (2002)
Month to date snowfall 0.0 0.0  
Since 1 July snowfall 36.8 44.8  
Snow Depth 0.00 in    
Sea Level Pressure  
Sea Level Pressure 30.30 in    
Wind  
Wind Speed 14 mph (SSW)    
Max Wind Speed 25 mph    
Max Gust Speed 29 mph    
Visibility 10 miles    
Events      
T = Trace of Precipitation, MM = Missing Value Source: NWS Daily Summary

Daily Weather History Graph

Daily Weather History Graph

Search for Another Location

Airport or City:

Trip Planner

Search our weather history database for the weather conditions in past years. The results will help you decide how hot, cold, wet, or windy it might be!

Date:

Astronomy

May. 05, 2012 Rise Set
Actual Time 5:25 AM PDT 8:08 PM PDT
Civil Twilight 4:50 AM PDT 8:43 PM PDT
Nautical Twilight 4:06 AM PDT 9:28 PM PDT
Astronomical Twilight 3:13 AM PDT 10:21 PM PDT
Moon 8:09 PM PDT (5/5) 4:52 AM PDT (5/5)
Length of Visible Light 15h 53m
Length of Day
14h 42m
Full, 100% of the Moon is Illuminated
May 5
Full
May 5
Full
May 12
Last Quarter
May 20
New
May 28
First Quarter

Hourly Weather History & Observations

Time (PDT) Temp. Windchill Dew Point Humidity Pressure Visibility Wind Dir Wind Speed Gust Speed Precip Events Conditions
12:53 AM 39.9 °F 32.5 °F 33.1 °F 77% 30.17 in 10.0 mi SSW 12.7 mph - N/A   Partly Cloudy
1:53 AM 39.0 °F 35.7 °F 33.1 °F 79% 30.18 in 10.0 mi SSE 4.6 mph - 0.00 in   Overcast
2:53 AM 37.9 °F 30.9 °F 30.9 °F 76% 30.19 in 10.0 mi South 10.4 mph - N/A   Mostly Cloudy
3:53 AM 36.0 °F 28.0 °F 30.9 °F 82% 30.21 in 10.0 mi SSW 11.5 mph - N/A   Overcast
4:53 AM 35.1 °F 26.9 °F 30.9 °F 85% 30.23 in 10.0 mi SSW 11.5 mph 17.3 mph N/A   Partly Cloudy
5:53 AM 34.0 °F 26.6 °F 30.9 °F 89% 30.26 in 10.0 mi SSW 9.2 mph - N/A   Partly Cloudy
6:53 AM 35.1 °F 25.5 °F 30.9 °F 85% 30.27 in 10.0 mi SSW 15.0 mph - N/A   Scattered Clouds
7:53 AM 37.9 °F 28.2 °F 30.9 °F 76% 30.28 in 10.0 mi SSW 18.4 mph - N/A   Scattered Clouds
8:53 AM 41.0 °F 33.1 °F 32.0 °F 70% 30.30 in 10.0 mi SW 15.0 mph - N/A   Scattered Clouds
9:53 AM 46.0 °F 38.8 °F 32.0 °F 58% 30.30 in 10.0 mi SW 18.4 mph - N/A   Scattered Clouds
10:53 AM 46.9 °F - 32.0 °F 56% 30.32 in 10.0 mi SW 12.7 mph 25.3 mph N/A   Scattered Clouds
11:53 AM 50.0 °F - 28.9 °F 44% 30.32 in 10.0 mi SW 13.8 mph 25.3 mph N/A   Mostly Cloudy
12:53 PM 51.1 °F - 28.0 °F 41% 30.32 in 10.0 mi SW 20.7 mph 27.6 mph N/A   Mostly Cloudy
1:53 PM 53.1 °F - 25.0 °F 34% 30.32 in 10.0 mi WSW 16.1 mph 26.5 mph N/A   Mostly Cloudy
2:53 PM 54.0 °F - 26.1 °F 34% 30.32 in 10.0 mi WSW 18.4 mph 28.8 mph N/A   Mostly Cloudy
3:53 PM 54.0 °F - 26.1 °F 34% 30.33 in 10.0 mi WSW 18.4 mph 23.0 mph N/A   Scattered Clouds
4:53 PM 52.0 °F - 26.1 °F 37% 30.33 in 10.0 mi SSW 17.3 mph - N/A   Mostly Cloudy
5:53 PM 53.1 °F - 25.0 °F 34% 30.33 in 10.0 mi SW 17.3 mph - N/A   Mostly Cloudy
6:53 PM 51.1 °F - 27.0 °F 39% 30.34 in 10.0 mi SSW 15.0 mph - N/A   Mostly Cloudy
7:53 PM 48.9 °F - 28.0 °F 44% 30.34 in 10.0 mi SSW 11.5 mph - N/A   Scattered Clouds
8:53 PM 46.9 °F - 28.9 °F 50% 30.36 in 10.0 mi South 11.5 mph 20.7 mph N/A   Partly Cloudy
9:53 PM 46.0 °F 39.9 °F 28.0 °F 50% 30.37 in 10.0 mi SSW 13.8 mph - N/A   Scattered Clouds
10:53 PM 45.0 °F 38.5 °F 28.0 °F 52% 30.37 in 10.0 mi SSW 13.8 mph - N/A   Mostly Cloudy
11:53 PM 44.1 °F 36.5 °F 28.0 °F 53% 30.37 in 10.0 mi SSW 17.3 mph - N/A   Mostly Cloudy